Location: Casa Rossa
(45.2389°N, 12.2056°E)
Time: 04:15:48
(UTC+00:00)

CZ-2D R/B - Pass Details

Date: 14 July 2020
Orbit: 552 x 639 km, 97.9° (Epoch: 11 August)

Event Time Altitude Azimuth Distance (km) Brightness Sun altitude
Rises 02:37:52 0° 10° (N) 2,933 8.0 -9.1°
Reaches altitude 10° 02:40:07 10° 7° (N) 2,011 7.0 -8.8°
Maximum altitude 02:44:26 63° 287° (WNW) 692 3.7 -8.2°
Drops below altitude 10° 02:48:38 10° 206° (SSW) 1,949 5.5 -7.7°
Enters shadow 02:49:08 - 205° (SSW) 2,153 5.8 -7.6°
